Погода в Бикине

Погода в Бикине : погода сейчас, прогноз погоды и архив. Всё, что Вы хотите узнать о погоде в Бикине!

Хотите узнать прогноз погоды в Бикине? Тогда Вам сюда: Погода в Бикине

Поиск расширенной информации на нашем сайте:

Другие новости

Новости СМИ2

Главная страница сайта

Новости сайта

03.07.2017

Напоминаем, что на нашем специализированном сайте Метеоцентр.Азия вы можете получить высокодетализированные автоматические прогнозы погоды по пунктам России, СНГ и мира в авиационном формате (включающие направление и скорость ветра, видимость, явления погоды, количество и форму облачности, нижнюю и верхнюю границу облачности).

Рекомендуем: http://tekstail.com.ua/ кухонные шторы купить. Фото штор.

Погода в Бикине - сегодня

Время (UTC), дата Ветер
(°,м/с) 
Видим.   Явления Облачность Т
(°С)
Тd
(°С)
f(%) Тe
(°С)
Pmin
(гПа)
dP
(гПа)
Po
(мм)
O2
(г/м3)
Тmin Tmax R s Состояние
почвы
12 21.09.17 тихо ()   20000 м    ясно 
+10.4 +7.7 83 +10  1011.9  1.3  753  291           
15 21.09.17 тихо ()   20000 м    ясно 
+7.9 +7 94 +8  1012.5  0.6  753  294           
18 21.09.17 тихо ()   20000 м    ясно 
+8 +6.4 90 +8  1013  0.5  754  294           
21 21.09.17 100 (В) 20000 м    ясно 
+9.1 +7.5 90 +10  1013.6  0.6  754  293  +5.9        влажная 
00 22.09.17 150 (ЮВ) 20000 м    ясно 
+16.5 +9.7 64 +18  1013.8  0.4  754  285           
03 22.09.17 150 (ЮВ) 20000 м    ясно 
+21.8 +10.9 50 +24  1012.6  -1.1  754  279           
06 22.09.17 180 (Ю) 20000 м    3/1 600 м верхняя 
[Cu hum|Ci fib]
+24.4 +9.4 39 +25  1011.1  -1.4  752  277           
09 22.09.17 080 (В) 20000 м    10/0 верхняя 
[Ci fib]
+20.7 +11.3 55 +24  1010.7  -0.5  752  280    +24.8       
12 22.09.17 080 (В) 20000 м    3/0 верхняя 
[Ci fib]
+14.4 +10.7 78 +17  1010.9  752  286           
15 22.09.17 120 (ЮВ) 20000 м    1/0 верхняя 
[Ci fib]
+15.2 +9.9 71 +18  1010.8  752  285           
18 22.09.17 110 (В) 20000 м    8/8 600 м верхняя 
[Sc|Ci sp]
+15.1 +10.3 73 +18  1010.6  -0.2  752  285           
21 22.09.17 150 (ЮВ) 20000 м    10/0 средняя, верхняя 
[Ac lent|Cc]
+14.2 +9.6 74 +15  1009.8  -0.8  751  286  +11.9        влажная 
00 23.09.17 140 (ЮВ) 20000 м    10/3 600 м средняя, верхняя 
[Sc|Ac trans|Ci sp]
+17.4 +10.9 66 +20  1010.1  0.4  752  283           
03 23.09.17 150 (ЮВ) 20000 м    9/9 600 м кучево-дожд. 
[Cb calv]
+17 +12.9 77 +22  1010.6  0.4  752  283           
06 23.09.17 260 (З) 20000 м    8/0 верхняя 
[Ci sp]
+19.4 +10.1 55 +22  1010.3  -0.2  752  281           
09 23.09.17 130 (ЮВ) 20000 м    ясно 
+17.8 +9.8 59 +20  1010.9  0.5  752  283    +21.1       
12 23.09.17 090 (В) 20000 м    ясно 
+14.3 +10.2 76 +16  1012.2  1.2  753  286           
15 23.09.17 110 (В) 20000 м    ясно 
+14 +9.8 76 +16  1012.1  0.1  753  287           
18 23.09.17 120 (ЮВ) 20000 м    ясно 
+13.7 +8.8 72 +14  1011.9  -0.2  753  287           
21 23.09.17 120 (ЮВ) 20000 м    10/0 верхняя 
[Ci fib]
+12.7 +8.4 75 +12  1011.8  0.1  753  288  +12.6        влажная 
00 24.09.17 130 (ЮВ) 20000 м    3/0 верхняя 
[Ci sp]
+14.9 +8.3 65 +15  1011.2  -0.5  752  286           
03 24.09.17 180 (Ю) 5{10}  20000 м    ясно 
+22.8 +5.5 33 +23  1007.5  -3.4  750  278           
06 24.09.17 180 (Ю) 4-10{12}  20000 м    8/8 600 м кучево-дожд. 
[Cb calv]
+24.2 +4.4 28 +24  1004  -3.5  747  276           
09 24.09.17 160 (Ю) 2{10}  20000 м  {гроза, ливн. осадки}  8/8 600 м кучево-дожд. 
[Cb calv]
+20 +6.5 41 +20  1004.9  -3.5  748  280    +24.9  0.0     
12 24.09.17 280 (З) 1{15}  4000 м  слаб. ливневой дождь, в посл. час гроза  10/10 600 м кучево-дожд. 
[Cb calv]
+14.1 +12.4 89 +19  1008.6  3.6  750  285           
Время (UTC), дата Ветер
(°,м/с) 
Видим.   Явления Облачность Т
(°С)
Тd
(°С)
f(%) Тe
(°С)
Pmin
(гПа)
dP
(гПа)
Po
(мм)
O2
(г/м3)
Тmin Tmax R s Состояние
почвы

Для получения пояснительной информации подведите курсор к названию столбца.

ПОГОДА в Бикине - архив

Всё, что Вы хотите узнать о погоде в Бикине - удобно и подробно!

Выберите нужную дату (начиная с 1 января 2015* года) и нажмите кнопку "Найти".
Будут отображены архивные сводки погоды по пункту Бикин, начиная с указанной даты.


Отображать данные в формате CSV (для использования в таблицах Excel)


Внимание! Наш архив погоды предназначен исключительно для личного некоммерческого использования в познавательных целях. Если Вам необходимы официальные справки о состоянии погоды (для производственных, юридических, коммерческих и т.п. целей), обращайтесь в органы Росгидромета.

*Примечание: данная дата относится к архиву по метеостанциям СССР (Россия, СНГ, Балтия).
Архив по метеостанциям Зарубежной Европы и Азии (кроме Китая) хранится 10 дней, по другим регионам земного шара (Китай, Африка, Америка, Австралия, Океания) - 1 день.

Бикин - район местоположения метеостанции


Название, широта, долгота, высота метеостанции:
Бикин 46.8°ш. 134.3°д. 68 м над ур. моря [Российская Федерация]

Дополнительная информация

В oтличие oт бoльшинства пoгoдных сайтoв мы публикуем пoдрoбную метеoинфoрмацию в детальнoм прoфессиoнальнoм фoрмате.

Характеристики температуры и влажнoсти вoздуха измеряются на высoте 2 м в тени вдали oт зданий и деревьев.
Скoрoсть ветра измеряется на высoте 10 м (на урoвне рoста челoвека скoрoсть ветра ниже в 1.5-2 раза). Если метеoстанция нахoдится в гoрoде или в лесу, тo скoрoсть ветра занижена на 2-4 м/с пo сравнению с oткрытым местoм. Скoрoсть ветра над акватoриями крупных рек и oзёр, а также на вершинах хoлмoв на 2-5 м/с выше, чем в oбычных услoвиях.
Атмoсфернoе давление в разных тoчках местнoсти мoжет значительнo oтличаться oт давления на метеoстанции, в зависимoсти oт услoвий рельефа (при пoдъёме на 10 м давление пoнижается примернo на 1 мм рт.ст.).